sat.trackr.live / text

‹ back to catalog

QIANFAN-175

NORAD 69392 · 2026-124L

PAYLOAD ACTIVE UNKNOWN

§ Identity

Operator
Country
PRC
Launch date
2026-06-04
Launch site
TAISC
Launch vehicle
Mass (kg)
RCS (m²)

External: N2YO · Heavens-Above · Gunter

§ Orbital elements

Epoch: 2026-09-20T04:57:11.399616Z

Period
106.59 min
Inclination
89.0094°
Eccentricity
0.0001819
Mean motion
13.51020629 rev/d
Perigee alt
1,067.2 km
Apogee alt
1,069.9 km
Semi-major
7,446.6 km
B*
1.5469e-4
RAAN
352.0223°
Arg perigee
102.6676°
Mean anomaly
257.4678°
Rev number
1,489

§ Raw data

QIANFAN-1751 69392U 26124L   26263.20638194  .00000112  00000+0  15469-3 0  99972 69392  89.0094 352.0223 0001819 102.6676 257.4678 13.51020629 14895

JSON: /api/v1/satellites/69392 · /tle

For live sub-satellite position, see the globe view (requires WebGL).

§ Visibility from observer

Set your observer location to see the next 7 days of passes ≥ 10°. The values pass through the URL so the page stays shareable.

No JS? Fill the form by hand. The geolocation button needs JavaScript.